Location: Boitzum
(52.1496°N, 9.6943°E)
Time: 01:55:02
(UTC+00:00)

Cosmos 2074 Rocket - Pass Details

Date: 20 April 2026
Orbit: 967 x 984 km, 82.9° (Epoch: 19 May)

Event Time Altitude Azimuth Distance (km) Brightness Sun altitude
Rises 19:36:02 0° 232° (SW) 3,667 7.2 -10.1°
Reaches altitude 10° 19:39:03 10° 245° (WSW) 2,727 6.8 -10.5°
Maximum altitude 19:44:03 25° 299° (WNW) 1,887 6.6 -11.1°
Drops below altitude 10° 19:49:06 10° 352° (N) 2,749 7.0 -11.7°
Sets 19:52:10 0° 6° (N) 3,704 7.5 -12.1°
